User: anonymous   Login
Location: Unspecified
(0.0000°N, 0.0000°E)
Time: 04:05:04
(UTC+02:00)
Language:

Cosmos 1295 Rocket - Orbit

View from above orbital plane
View from above orbital plane
View from above satellite
View from above satellite

Ground track
Ground track

The orbit data is extracted from the following two-line orbital elements,

1 12682U 81077B   15210.43497789 -.00000013  00000-0 -28356-4 0  9996
2 12682 082.9178 171.2614 0035327 114.5922 359.7877 13.78496965707976
Epoch (UTC): 29 July 2015 10:26:22
Eccentricity: 0.0035327
inclination: 82.9178°
perigee height: 943 km
apogee height: 995 km
right ascension of ascending node: 171.2614°
argument of perigee: 114.5922°
revolutions per day: 13.78496965
mean anomaly at epoch: 359.7877°
orbit number at epoch: 70797

The dashed part of the orbit path shows where the satellite is in the earth's shadow,  

DLR